sat.trackr.live / text

‹ back to catalog

STARLINK-30440

NORAD 57923 · 2023-147L

PAYLOAD ACTIVE UNKNOWN

§ Identity

Operator
Country
US
Launch date
2023-09-24
Launch site
AFETR
Launch vehicle
Mass (kg)
RCS (m²)

Purposes: comms

External: N2YO · Heavens-Above · Gunter

§ Orbital elements

Epoch: 2026-09-20T19:17:49.744608Z

Period
94.27 min
Inclination
43.0031°
Eccentricity
0.0000675
Mean motion
15.27573945 rev/d
Perigee alt
482.6 km
Apogee alt
483.5 km
Semi-major
6,861.2 km
B*
5.0767e-7
RAAN
303.6950°
Arg perigee
247.3462°
Mean anomaly
112.7319°
Rev number
16,646

§ Raw data

STARLINK-304401 57923U 23147L   26263.80404797 -.00000248  00000+0  50767-6 0  99962 57923  43.0031 303.6950 0000675 247.3462 112.7319 15.27573945166466

JSON: /api/v1/satellites/57923 · /tle

For live sub-satellite position, see the globe view (requires WebGL).

§ Visibility from observer

Set your observer location to see the next 7 days of passes ≥ 10°. The values pass through the URL so the page stays shareable.

No JS? Fill the form by hand. The geolocation button needs JavaScript.